This demonstration page uses our WeatherBlox Daily Observations layout. Learn more.

Left ArrowRight Arrow

39.92423, -83.80882

Hourly Observations for March 8, 2021

Temp ( °F °C ) Dew Point ( °F °C ) Humidity (%) Winds ( mph kmh ) Pressure ( in mb ) Visibility ( mi km ) Precip ( " mm )
12:56 am 00:56 Clear 22 -5.6 17 -8.3 82 82 N N/A 30.49 1032 10 16 N/A
1:56 am 01:56 Clear 25 -3.9 16 -8.9 69 69 S 7 11 30.48 1032 10 16 N/A
2:56 am 02:56 Clear 21 -6.1 14 -10 74 74 SSE 7 11 30.48 1032 10 16 N/A
3:56 am 03:56 Clear 21 -6.1 15 -9.4 78 78 SSE 5 7 30.48 1032 10 16 N/A
4:56 am 04:56 Clear 27 -2.8 14 -10 58 58 S 5 7 30.48 1032 10 16 N/A
5:56 am 05:56 Clear 29 -1.7 14 -10 54 54 S 5 7 30.49 1033 10 16 N/A
6:56 am 06:56 Clear 29 -1.7 15 -9.4 56 56 S 6 9 30.50 1033 10 16 N/A
7:56 am 07:56 Sunny 33 0.6 17 -8.3 52 52 S 6 9 30.50 1033 8 13 N/A
8:56 am 08:56 Sunny 39 3.9 18 -7.8 43 43 SSW 9 15 30.50 1033 10 16 N/A
9:56 am 09:56 Partly Cloudy 46 7.8 21 -6.1 37 37 SSW 10 17 30.50 1033 10 16 N/A
10:56 am 10:56 Sunny 51 10.6 25 -3.9 36 36 SSW 14 22 30.47 1032 10 16 N/A
11:56 am 11:56 Sunny 55 12.8 28 -2.2 35 35 WSW 15 24 30.45 1031 10 16 N/A
12:56 pm 12:56 Sunny 58 14.4 29 -1.7 33 33 SSW 15 24 30.42 1030 10 16 N/A
1:56 pm 13:56 Sunny 60 15.6 33 0.6 36 36 WSW 15 24 30.39 1029 10 16 N/A
2:56 pm 14:56 Sunny 62 16.7 34 1.1 35 35 WSW 18 30 30.37 1029 10 16 N/A
3:56 pm 15:56 Sunny 62 16.7 34 1.1 35 35 WSW 15 24 30.36 1028 10 16 N/A
4:56 pm 16:56 Sunny 62 16.7 33 0.6 34 34 WSW 17 28 30.36 1028 10 16 N/A
5:56 pm 17:56 Sunny 59 15 34 1.1 39 39 WSW 10 17 30.36 1028 10 16 N/A
6:56 pm 18:56 Clear 54 12.2 33 0.6 45 45 SW 8 13 30.37 1029 10 16 N/A
7:56 pm 19:56 Clear 52 11.1 32 undefined 47 47 SSW 6 9 30.39 1029 10 16 N/A
8:56 pm 20:56 Clear 49 9.4 33 0.6 55 55 SSW 8 13 30.39 1029 10 16 N/A
9:56 pm 21:56 Clear 49 9.4 33 0.6 55 55 SSW 8 13 30.39 1029 10 16 N/A
10:56 pm 22:56 Clear 47 8.3 32 undefined 56 56 SW 8 13 30.39 1029 10 16 N/A
11:56 pm 23:56 Clear 45 7.2 32 undefined 61 61 SW 7 11 30.39 1029 10 16 N/A

Powered by AerisWeather